Weather History for Stevens Point, WI

Change the Weather History Date:

Tuesday, November 5, 2013

  Actual Average Record
Temperature  
Mean Temperature 38 °F -  
Max Temperature 47 °F 47 °F 73 °F (1978)
Min Temperature 28 °F 28 °F -3 °F (1951)
Degree Days  
Heating Degree Days 28    
Moisture  
Dew Point 36 °F    
Average Humidity 92    
Maximum Humidity 100    
Minimum Humidity 62    
Precipitation  
Precipitation 0.04 in - - ()
Sea Level Pressure  
Sea Level Pressure 30.12 in    
Wind  
Wind Speed 3 mph (NE)    
Max Wind Speed 20 mph    
Max Gust Speed 17 mph    
Visibility 6 miles    
Events Fog , Rain    
Averages and records for this station are not official NWS values.
T = Trace of Precipitation, MM = Missing Value Source: NWS Daily Summary

Daily Weather History Graph

Daily Weather History Graph

Search for Another Location

Airport:

Trip Planner

Search our weather history database for the weather conditions in past years. The results will help you decide how hot, cold, wet, or windy it might be!

Date:

Astronomy

Nov. 05, 2013 Rise Set
Actual Time 6:41 AM CST 4:41 PM CST
Civil Twilight 6:10 AM CST 5:12 PM CST
Nautical Twilight 5:36 AM CST 5:46 PM CST
Astronomical Twilight 5:02 AM CST 6:20 PM CST
Moon 8:59 AM CST (11/5) 6:39 PM CST (11/5)
Length of Visible Light 11h 01m
Length of Day
10h 00m
Waxing Crescent, 7% of the Moon is Illuminated
Nov 5
Waxing Crescent
Nov 9
First Quarter
Nov 17
Full
Nov 25
Last Quarter
Dec 2
New

Hourly Weather History & Observations

Time (CST) Temp. Windchill Dew Point Humidity Pressure Visibility Wind Dir Wind Speed Gust Speed Precip Events Conditions
12:15 AM 42.8 °F 40.1 °F 39.6 °F 88% 30.15 in 10.0 mi WNW 4.6 mph - N/A   Overcast
12:35 AM 41.9 °F 40.0 °F 39.4 °F 91% 30.16 in 10.0 mi West 3.5 mph - N/A   Overcast
12:55 AM 41.2 °F - 39.0 °F 92% 30.16 in 10.0 mi Calm Calm - N/A   Mostly Cloudy
1:15 AM 40.1 °F - 38.5 °F 94% 30.17 in 7.0 mi Calm Calm - N/A   Scattered Clouds
1:35 AM 39.4 °F - 38.3 °F 96% 30.17 in 7.0 mi Calm Calm - N/A   Clear
1:55 AM 38.1 °F 34.6 °F 37.4 °F 97% 30.17 in 5.0 mi NW 4.6 mph - N/A   Clear
2:15 AM 38.5 °F - 37.4 °F 96% 30.18 in 7.0 mi Calm Calm - N/A   Clear
2:35 AM 37.8 °F - 36.9 °F 97% 30.18 in 5.0 mi Calm Calm - N/A   Clear
2:55 AM 34.9 °F - 34.7 °F 99% 30.18 in 1.0 mi Calm Calm - N/A   Mist
3:15 AM 33.4 °F - 33.1 °F 99% 30.18 in 0.2 mi Calm Calm - N/A Fog Fog
3:35 AM 32.4 °F - 32.4 °F 100% 30.18 in 0.2 mi Calm Calm - N/A Fog Fog
3:55 AM 30.6 °F - 30.4 °F 99% 30.19 in 0.5 mi Calm Calm - N/A Fog Light Freezing Fog
4:15 AM 31.1 °F - 31.1 °F 100% 30.20 in 0.2 mi Calm Calm - N/A Fog Light Freezing Fog
4:35 AM 29.3 °F - 29.3 °F 100% 30.21 in 0.2 mi Calm Calm - N/A Fog Light Freezing Fog
4:55 AM 29.3 °F - 29.3 °F 100% 30.21 in 0.2 mi Calm Calm - N/A Fog Light Freezing Fog
5:15 AM 28.6 °F - 28.6 °F 100% 30.22 in 0.2 mi Calm Calm - N/A Fog Light Freezing Fog
5:35 AM 29.1 °F - 29.1 °F 100% 30.22 in 0.2 mi Calm Calm - N/A Fog Light Freezing Fog
5:55 AM 28.6 °F - 28.6 °F 100% 30.22 in 0.2 mi Calm Calm - N/A Fog Light Freezing Fog
6:15 AM 28.4 °F - 28.4 °F 100% 30.22 in 0.2 mi Calm Calm - N/A Fog Light Freezing Fog
6:35 AM 28.0 °F - 28.0 °F 100% 30.22 in 0.2 mi Calm Calm - N/A Fog Light Freezing Fog
6:55 AM 28.4 °F - 28.4 °F 100% 30.23 in 0.2 mi Calm Calm - N/A Fog Light Freezing Fog
7:15 AM 28.4 °F - 28.4 °F 100% 30.24 in 0.2 mi Calm Calm - N/A Fog Light Freezing Fog
7:35 AM 28.9 °F - 28.9 °F 100% 30.25 in 0.2 mi Calm Calm - N/A Fog Light Freezing Fog
7:55 AM 29.3 °F - 29.3 °F 100% 30.25 in 0.2 mi Calm Calm - N/A Fog Light Freezing Fog
8:15 AM 30.2 °F - 30.2 °F 100% 30.25 in 0.2 mi Calm Calm - N/A Fog Light Freezing Fog
8:35 AM 30.7 °F - 30.7 °F 100% 30.25 in 0.2 mi Calm Calm - N/A Fog Light Freezing Fog
8:55 AM 31.8 °F - 31.8 °F 100% 30.25 in 0.2 mi Calm Calm - N/A Fog Fog
9:15 AM 34.5 °F - 34.5 °F 100% 30.24 in 0.2 mi Calm Calm - N/A Fog Fog
9:35 AM 36.7 °F - 36.7 °F 100% 30.23 in 0.2 mi Calm Calm - N/A Fog Fog
9:55 AM 39.7 °F - 39.7 °F 100% 30.25 in 10.0 mi Calm Calm - N/A   Scattered Clouds
10:15 AM 41.5 °F - 39.2 °F 91% 30.25 in 10.0 mi Calm Calm - N/A   Clear
10:35 AM 43.2 °F 38.4 °F 35.6 °F 75% 30.25 in 10.0 mi South 8.1 mph - N/A   Clear
10:55 AM 44.2 °F 42.7 °F 34.7 °F 69% 30.24 in 10.0 mi SSE 3.5 mph - N/A   Clear
11:15 AM 45.3 °F 44.0 °F 34.9 °F 67% 30.23 in 10.0 mi SE 3.5 mph - N/A   Clear
11:35 AM 46.4 °F - 34.3 °F 63% 30.22 in 10.0 mi Calm Calm - N/A   Clear
11:55 AM 46.9 °F - 34.5 °F 62% 30.20 in 10.0 mi ENE 3.5 mph - N/A   Clear
12:15 PM 47.5 °F - 35.2 °F 63% 30.18 in 10.0 mi NE 4.6 mph - N/A   Clear
12:35 PM 46.9 °F - 34.5 °F 62% 30.18 in 10.0 mi Calm Calm - N/A   Clear
12:55 PM 47.3 °F - 34.7 °F 62% 30.18 in 10.0 mi Calm Calm - N/A   Clear
1:15 PM 47.3 °F - 35.1 °F 62% 30.18 in 10.0 mi Calm Calm - N/A   Mostly Cloudy
1:35 PM 47.3 °F - 36.1 °F 65% 30.17 in 10.0 mi ESE 3.5 mph - N/A Rain Light Rain
1:55 PM 46.6 °F - 37.6 °F 71% 30.16 in 10.0 mi Calm Calm - N/A Rain Light Rain
2:15 PM 45.7 °F 44.4 °F 40.5 °F 82% 30.14 in 10.0 mi NNE 3.5 mph - N/A Rain Light Rain
2:35 PM 45.0 °F 43.5 °F 40.6 °F 85% 30.14 in 10.0 mi North 3.5 mph - N/A Rain Rain
2:55 PM 44.4 °F 41.2 °F 41.2 °F 88% 30.13 in 10.0 mi NNE 5.8 mph - N/A Rain Light Rain
3:15 PM 43.9 °F 40.5 °F 41.2 °F 90% 30.12 in 10.0 mi NNE 5.8 mph - N/A Rain Light Rain
3:35 PM 43.3 °F 40.7 °F 41.7 °F 94% 30.11 in 7.0 mi NE 4.6 mph - N/A Rain Light Rain
3:55 PM 42.8 °F 40.1 °F 41.4 °F 95% 30.11 in 5.0 mi NE 4.6 mph - N/A Rain Light Rain
4:15 PM 42.4 °F 37.5 °F 40.5 °F 93% 30.09 in 10.0 mi NE 8.1 mph - N/A Rain Light Rain
4:35 PM 42.1 °F 37.1 °F 40.6 °F 95% 30.08 in 7.0 mi NE 8.1 mph - N/A Rain Light Rain
4:55 PM 41.9 °F 36.3 °F 40.6 °F 95% 30.07 in 7.0 mi NE 9.2 mph - N/A Rain Light Rain
5:15 PM 41.9 °F 37.5 °F 40.5 °F 95% 30.06 in 7.0 mi NE 6.9 mph - N/A Rain Light Rain
5:35 PM 41.4 °F 36.8 °F 40.3 °F 96% 30.06 in 7.0 mi ENE 6.9 mph - N/A Rain Light Rain
5:55 PM 41.2 °F 35.0 °F 40.1 °F 96% 30.04 in 7.0 mi NE 10.4 mph - N/A Rain Light Rain
6:15 PM 41.0 °F 35.2 °F 40.1 °F 97% 30.04 in 7.0 mi NE 9.2 mph - N/A Rain Rain
6:35 PM 41.0 °F 34.3 °F 39.9 °F 96% 30.02 in 5.0 mi NE 11.5 mph - N/A Rain Rain
6:55 PM 40.6 °F 33.8 °F 39.7 °F 97% 30.01 in 7.0 mi NE 11.5 mph 17.3 mph 0.01 in Rain Rain
7:15 PM 40.6 °F 33.8 °F 39.7 °F 97% 30.00 in 5.0 mi NE 11.5 mph - 0.01 in Rain Rain
7:35 PM 40.5 °F 34.1 °F 39.7 °F 97% 29.99 in 4.0 mi NE 10.4 mph - 0.01 in Rain Rain
7:55 PM 40.1 °F 32.4 °F 39.4 °F 97% 29.97 in 7.0 mi NE 13.8 mph - 0.01 in Rain Rain
8:15 PM 40.1 °F 32.7 °F 39.2 °F 97% 29.96 in 7.0 mi NE 12.7 mph - N/A Rain Rain
8:35 PM 40.1 °F 33.6 °F 39.2 °F 97% 29.95 in 7.0 mi NE 10.4 mph - N/A Rain Light Rain
8:55 PM 40.1 °F 34.1 °F 39.2 °F 97% 29.94 in 7.0 mi ENE 9.2 mph - N/A Rain Light Rain
9:15 PM 40.1 °F 32.4 °F 39.2 °F 97% 29.93 in 5.0 mi NE 13.8 mph - N/A Rain Light Rain
9:35 PM 40.1 °F 30.7 °F 39.2 °F 97% 29.91 in 10.0 mi NE 19.6 mph - 0.01 in Rain Light Rain
9:55 PM 40.1 °F 32.7 °F 39.2 °F 97% 29.90 in 7.0 mi NE 12.7 mph 16.1 mph 0.02 in Rain Light Rain
10:15 PM 39.7 °F 33.2 °F 39.2 °F 98% 29.89 in 7.0 mi NE 10.4 mph - N/A Rain Light Rain
10:35 PM 39.6 °F 33.0 °F 39.2 °F 99% 29.89 in 7.0 mi NE 10.4 mph - N/A Rain Rain
10:55 PM 39.6 °F 32.5 °F 39.2 °F 99% 29.88 in 7.0 mi NE 11.5 mph - N/A Rain Rain
11:15 PM 39.2 °F 32.5 °F 38.5 °F 97% 29.87 in 7.0 mi NNE 10.4 mph - N/A Rain Light Rain
11:35 PM 39.2 °F 32.0 °F 38.3 °F 97% 29.86 in 7.0 mi NNE 11.5 mph - N/A Rain Light Rain
11:55 PM 38.7 °F 30.9 °F 38.1 °F 98% 29.86 in 5.0 mi NNE 12.7 mph 17.3 mph N/A Rain Light Rain